This is the latest recevied weather packets stored in our database for station/object DL9GRB-13. If no packets are shown the sender has not sent any weather packets the latest 10 day(s).
| Time | Temp. | Humidity | Pressure | Rain* | Wind** | Luminosity | Snow |
|---|---|---|---|---|---|---|---|
| 1777602126 | 3.33° C | 90% | 1028.3 hPa | 0 mm | - | 0 W/m² | - |
| 1777601946 | 3.33° C | 89% | 1028 hPa | 0 mm | - | 0 W/m² | - |
| 1777601586 | 3.33° C | 90% | 1028.2 hPa | 0 mm | - | 0 W/m² | - |
| 1777600686 | 3.33° C | 89% | 1028.3 hPa | 0 mm | - | 0 W/m² | - |
| 1777587066 | 6.11° C | 81% | 1028.3 hPa | 0 mm | - | 0 W/m² | - |
| 1777584906 | 6.67° C | 79% | 1028.5 hPa | 0 mm | - | 0 W/m² | - |
| 1777584726 | 6.67° C | 79% | 1028.3 hPa | 0 mm | - | 0 W/m² | - |
| 1777584546 | 6.67° C | 79% | 1028.5 hPa | 0 mm | - | 0 W/m² | - |
| 1777584366 | 6.67° C | 79% | 1028.3 hPa | 0 mm | - | 0 W/m² | - |
| 1777584186 | 6.67° C | 79% | 1028.5 hPa | 0 mm | - | 0 W/m² | - |
| 1777584006 | 6.67° C | 79% | 1028.5 hPa | 0 mm | - | 0 W/m² | - |
| 1777583646 | 7.22° C | 78% | 1028.2 hPa | 0 mm | - | 0 W/m² | - |
| 1777583466 | 7.22° C | 78% | 1028.3 hPa | 0 mm | - | 0 W/m² | - |
| 1777583106 | 7.22° C | 77% | 1028.2 hPa | 0 mm | - | 0 W/m² | - |
| 1777582746 | 7.22° C | 76% | 1028.4 hPa | 0 mm | - | 0 W/m² | - |
| 1777582566 | 7.22° C | 76% | 1028.4 hPa | 0 mm | - | 0 W/m² | - |
| 1777581846 | 7.78° C | 74% | 1028.4 hPa | 0 mm | - | 0 W/m² | - |
| 1777580946 | 7.78° C | 73% | 1028.7 hPa | 0 mm | - | 0 W/m² | - |
| 1777580766 | 7.78° C | 72% | 1028.6 hPa | 0 mm | - | 0 W/m² | - |
| 1777580046 | 8.33° C | 70% | 1028.7 hPa | 0 mm | - | 0 W/m² | - |
| 1777579866 | 8.33° C | 70% | 1028.7 hPa | 0 mm | - | 0 W/m² | - |
| 1777579506 | 8.33° C | 70% | 1028.6 hPa | 0 mm | - | 0 W/m² | - |
| 1777579326 | 8.89° C | 69% | 1028.6 hPa | 0 mm | - | 0 W/m² | - |
| 1777579146 | 8.89° C | 69% | 1028.7 hPa | 0 mm | - | 0 W/m² | - |
| 1777578606 | 9.44° C | 68% | 1028.6 hPa | 0 mm | - | 0 W/m² | - |
* Rain latest hour (hover to see other rain measurements)
** Current wind speed in m/s (hover to see current wind gust speed)